www.pogodaiklimat.ru

Погода и климат >> Архив погоды >> Аргентина >> Сан-Луис


ПОГОДА в Сан-Луисе

  • Прогноз погоды в Сан-Луисе
  • Монитор погоды в Сан-Луисе

АРХИВ ПОГОДЫ в Сан-Луисе

Время (UTC), дата Ветер
(напр.,м/с)
 
Видим.   Явления Облачность Т
(С)
Тd
(С)
f
(%)
Тe
(С)
Тes
(С)
Комфортность P
(гПа)
Po
(гПа)
Тmin
(С)
Tmax
(С)
R
(мм)
R24
(мм)
S
(см)
12 12.07 В 7 20 км 8/6 600 м
[Cu Sc Ac As]
+10.7 +4.5 65 +8 +8 1017.8 935.0 +8.7 +12.3
15 12.07 В 6 20 км 8/8 600 м
[Cu Sc]
+14.1 +6.5 60 +12 +13 1018.0 935.7
18 12.07 В 7 20 км 5/5 1050 м
[Sc]
+14.7 +6.5 58 +13 +14 1016.3 934.0
21 12.07 В 7 20 км 4/3 1050 м
[Sc Ac trans]
+12.6 +6.5 66 +10 +10 1016.1 933.4
00 13.07 В 6 20 км 6/3 1050 м
[Sc Ac As]
+12.1 +5.7 65 +10 +10 1017.3 934.6 +10.6 +15.4
03 13.07 В 2 20 км ясно +8.9 +5.3 78 +7 +7 1017.9 935.2
06 13.07 В 2 20 км ясно +7.8 +5.2 84 +6 +6 1016.3 933.7
09 13.07 штиль 0 20 км 8/4 1200 м
[Sc Ac As]
+8.3 +6.0 85 +7 +7 1016.0 933.2
12 13.07 СВ 2 20 км 4/3 1050 м
[Sc Ac As Cs]
+7.3 +5.3 87 +5 +5 1017.2 934.1 +6.9 +12.1
15 13.07 З 3 20 км 5/3 1200 м
[Sc Ac trans]
+13.9 +7.2 64 +13 +16 1017.5 934.8
18 13.07 СЗ 3 20 км 6/6 1200 м
[Sc Ac As]
+16.6 +6.8 52 +17 +19 1015.1 932.8
21 13.07 Ю 2 20 км 1/1 1200 м
[Sc]
+15.9 +5.6 50 +16 +16 1015.8 933.4
00 14.07 В 3 20 км ясно +11.0 +5.3 68 +10 +10 1018.8 935.4 +6.9 +17.0
03 14.07 СВ 2 20 км ясно +8.4 +4.9 79 +7 +7 1019.1 936.2
06 14.07 В 3 20 км ясно +8.0 +5.4 84 +6 +6 1018.3 935.8
09 14.07 В 2 20 км ясно +6.2 +3.7 84 +4 +4 1016.6 933.8
12 14.07 СВ 3 20 км 3/1 1200 м
[Sc Ci sp]
+7.5 +4.9 84 +5 +5 1017.6 934.2 +5.9 +11.0
15 14.07 С 6 20 км 3/1 1200 м
[Sc Ac As]
+16.6 +7.1 53 +16 +17 1017.5 935.0
18 14.07 СЗ 4 20 км 3/1 1200 м
[Cu hum Cs]
+18.5 +7.0 47 +19 +22 1015.0 933.0
21 14.07 СЗ 3 20 км 8/0
[Ac As Cs]
+17.6 +6.7 49 +18 +18 1015.8 933.4
00 15.07 СВ 3 20 км 6/3 1350 м
[Sc Cs]
+12.8 +6.5 65 +12 +12 1018.8 935.6 +7.4 +19.6
03 15.07 В 3 20 км ясно +9.6 +6.0 78 +8 +8 1020.0 937.6
06 15.07 В 3 20 км 1/0
[As trans]
+7.8 +4.7 81 +5 +5 1021.4 938.9
09 15.07 В 6 20 км 5/5 1200 м
[Sc]
+9.4 +3.6 67 +6 +6 1022.0 939.4
12 15.07 В 7 20 км 5/5 1200 м
[Sc]
+9.0 -1.9 46 +5 +5 1024.5 941.0 +7.3 +12.8
15 15.07 В 5 20 км 1/0
[Ac As]
+14.1 -0.6 36 +13 +16 1024.4 941.3
18 15.07 штиль 0 20 км 1/0
[Ci fib]
+18.9 +4.6 39 +19 +27 1021.8 939.3
21 15.07 штиль 0 20 км 1/0
[Ci fib]
+17.4 +5.7 46 +17 +18 1021.2 938.8
00 16.07 В 4 20 км ясно +10.1 +3.7 64 +8 +8 1023.5 939.8 +9.0 +18.9
03 16.07 С 3 20 км ясно +10.1 +4.5 68 +8 +8 1022.7 939.8
06 16.07 С 4 20 км ясно +9.9 +5.0 72 +8 +8 1020.2 938.1
09 16.07 С 4 20 км ясно +11.3 +5.9 69 +9 +9 1017.6 935.7
12 16.07 С 4 20 км 1/1 1200 м
[Sc]
+10.0 +5.6 74 +7 +8 1019.0 935.8 +8.8 +13.1
15 16.07 С 9 20 км 1/1 1200 м
[Sc]
+17.7 +5.6 45 +17 +17 1017.4 935.4
18 16.07 С 8 20 км 1/1 1050 м
[Sc]
+19.6 +5.7 40 +20 +21 1015.1 933.4
21 16.07 С 5 20 км 1/0
[Cs]
+17.7 +6.3 47 +17 +17 1014.7 933.0
00 17.07 СВ 3 20 км 3/0
[Cs]
+12.3 +7.3 72 +11 +11 1016.9 934.2 +10.0 +20.1
03 17.07 С 3 20 км 5/0
[Cs]
+10.9 +6.1 72 +9 +9 1017.5 935.6
06 17.07 С 3 20 км 4/0
[Cs]
+10.2 +6.5 78 +8 +8 1016.6 934.9
09 17.07 С 2 20 км 1/0
[Cs]
+12.3 +6.4 67 +11 +11 1014.7 933.2
12 17.07 С 3 20 км 9/0
[Cs]
+11.7 +5.9 68 +10 +10 1015.2 932.9 +9.4 +13.1
15 17.07 СВ 3 20 км 9/0
[Cs]
+16.8 +7.1 53 +17 +22 1014.7 932.9
18 17.07 СЗ 10 20 км 8/0
[Cs]
+22.6 +4.3 30 +23 +23 комфорт 1009.7 929.0
21 17.07 З 4 20 км 8/0
[Cs]
+18.7 +5.4 42 +19 +19 1009.9 928.9
00 18.07 В 1 20 км 9/0
[Ac As Cs]
+13.4 +6.8 64 +14 +14 1011.4 929.4 +9.6 +23.4
03 18.07 штиль 0 20 км 9/0
[Cs]
+12.5 +6.2 65 +12 +12 1012.4 931.0
06 18.07 штиль 0 20 км 3/0
[Cs]
+11.0 +5.8 70 +11 +11 1014.3 933.3
09 18.07 В 7 20 км 5/3 1050 м
[Sc Ac As Cs]
+10.6 +4.1 64 +7 +7 1017.5 935.7
12 18.07 В 10 20 км 9/9 1050 м
[Sc]
+10.1 -2.3 42 +6 +6 1021.0 938.1 +10.1 +14.0
15 18.07 В 7 20 км 9/5 1200 м
[Sc Ac As]
+12.5 -4.6 30 +10 +11 1024.0 941.0
18 18.07 ЮВ 9 20 км 9/8 1200 м
[Sc Ac As]
+13.6 -6.4 24 +11 +11 1023.4 940.5
21 18.07 В 6 20 км 4/4 1200 м
[Sc]
+12.6 -6.7 25 +11 +11 1023.1 940.0
00 19.07 В 6 20 км 1/1 1200 м
[Sc]
+11.2 -5.9 30 +9 +9 1023.4 940.0 +10.1 +14.9
06 19.07 С 4 20 км ясно +3.4 -2.7 64 -1 -1 1022.1 938.2
09 19.07 С 2 20 км ясно +3.8 -5.4 51 +2 +2 1020.1 936.2

 

Местоположение метеостанции Сан-Луис (Аргентина): широта -33.26 долгота -66.35 высота над уровнем моря 713 м.

В архиве по умолчанию представлена погода в Сан-Луисе за последнюю неделю. Архивные данные за месяц целиком и за предыдущие месяцы, начиная с января 2011 года, Вы можете получить, выбрав интересующий диапазон дат из раскрывающегося списка и нажав кнопку "Ввод!".


*Определитесь, кто Вы:
робот инопланетянин человек

Внимание! Время в таблицах - всемирное. Для получения местного времени необходимо прибавить поправку, которая равна -3 ч.

Смотрите также архив погоды в соседних городах и на ближайших метеорологических станциях:

Погода в Вилья Рейнольдс (Аргентина) (104 км)
Погода в Вилла Долорес (Аргентина) (185 км)
Погода в Сан-Мартине (Аргентина) (193 км)
Погода в Рио-Куарто (Аргентина) (195 км)
Погода в Мендосе (Аргентина) (232 км)
Погода в Сан-Рафаэле (Аргентина) (239 км)
Погода в Сан-Хуане (Аргентина) (283 км)
Погода в Пиларе (Аргентина) (292 км)
Погода в Лабоулайе (Аргентина) (293 км)
Погода в Кордове (Аргентина) (296 км)

Пояснения к столбцам:

Ветер - указаны скорость ветра в м/с - средняя за 10 мин, порывы в срок и между сроками (в фигурных скобках) и направление, откуда дует ветер: С - северный, СВ - северо-восточный, В - восточный, ЮВ - юго-восточный, Ю - южный, ЮЗ - юго-западный, З - западный, СЗ - северо-западный.
Видимость - горизонтальная дальность видимости в метрах или километрах. При видимости от 1 до 10 км при отсутствии осадков обычно наблюдается дымка, при ухудшении видимости до 1 км и менее - туман. В сухую погоду видимость может ухудшаться дымом, пылью или мглою.
Явления - указаны атмосферные явления, наблюдавшиеся в срок или в последний час перед сроком; фигурными скобками обозначены явления, наблюдавшиеся между сроками (за 1-3 часа до срока); квадратными скобками обозначены град или гололедные отложения с указанием их диаметра в мм.
Облачность - указаны через наклонную черту общая и нижняя облачность в баллах и высота нижней границы облаков в метрах; квадратными скобками обозначены формы облаков: Ci - перистые, Cs - перисто-слоистые, Cc - перисто-кучевые, Ac - высококучевые, As - высокослоистые, Sc - слоисто-кучевые, Ns - слоисто-дождевые, Cu - кучевые, Cb - кучево-дождевые. Подробнее классификацию облаков см. в Атласе облаков (PDF).
T - Температура воздуха - температура, измеренная на высоте 2 м над землей.
Td - Температура точки росы - температура, при понижении до которой содержащийся в воздухе водяной пар достигнет насыщения.
f - Относительная влажность воздуха - влажноcть воздуха, измеренная на высоте 2 м над землей.
Te - Эффективная температура - температура, которую ощущает одетый по сезону человек в тени. Характеристика душности погоды. При расчете учитывается влияние влажности воздуха и скорости ветра на теплоощущения человека.
Tes - Эффективная температура на солнце - температура, которую ощущает человек, с поправкой на солнечный нагрев. Характеристика знойности погоды. Зависит от высоты солнца над горизонтом, облачности и скорости ветра. Ночью, в пасмурную погоду, а также при ветре 12 м/с и более поправка равна нулю.
P - Атмосферное давление - приведенное к уровню моря атмосферное давление.
Po - Атмосферное давление - измеренное на уровне метеостанции атмосферное давление.
Tmin - Минимальная температура - минимум температуры воздуха на высоте 2 м над землей.
Tmax - Максимальная температура - максимум температуры воздуха на высоте 2 м над землей.
R - Количество осадков - Количество выпавших осадков за период времени, мм. При наведении курсора мыши на число - период времени, за который выпало указанное количество осадков.
R24 - Количество осадков - Количество выпавших осадков за 24 часа, мм.
S - Снежный покров - Высота снежного покрова, см. При наведении курсора мыши на число - состояние снежного покрова и степень покрытия местности в баллах.